CAPE
4 7 8 6 7 7 8 8 9 6 4 5 6 5 4 6 4 4 2 4 4 2 4 2 2 3 2 0 2 3 0 0 0 0 0 0 0 0 0 587 1761 2004 1734 891 685 599 493 706 998 885 1198 1126 1005 1111 1009 1016 988 1171 996 741 480 546 690 685 907 846 817 1007 1028 1620 1614 1046 747 1243 1966 1529 1694 1661 1546 1584 1569 1634 1448 2483 2154 1752 1514 958
10 9 5 8 10 8 9 7 5 7 6 4 4 6 5 3 5 4 3 3 5 3 2 2 2 2 1 1 2 3 0 0 0 0 0 0 0 0 0 824 1962 2098 1427 783 584 515 494 486 1004 955 1124 1201 1146 1352 1193 1053 1155 1226 917 954 531 637 691 707 771 1082 841 878 1003 1278 1212 1062 1116 983 1934 1672 1315 1830 1617 1672 1684 1748 1766 2429 1960 1670 1480 1364
5 6 7 8 6 7 9 10 9 6 6 6 6 6 6 4 3 3 2 2 5 3 2 1 2 4 0 0 3 0 0 0 0 0 0 0 0 0 40 1124 2128 2163 940 648 444 325 425 500 994 970 1118 1381 1200 1318 1120 1379 1243 1343 1283 625 676 705 808 841 910 1022 1132 1007 1039 1107 1426 1292 1601 879 2022 1808 1271 1267 1702 1888 1700 1702 1405 1818 1967 1687 1333 752
7 6 7 7 5 4 4 4 5 7 7 6 4 6 8 8 5 2 2 3 2 2 2 0 1 1 2 0 0 0 0 0 0 0 0 0 0 0 250 1280 2286 1973 787 403 239 268 361 527 836 1162 1328 1486 1422 1153 937 1226 984 1108 1106 911 830 990 748 1011 1208 1336 1053 1296 1132 1124 1356 1183 1566 1586 1342 1351 1566 1414 1564 1735 1564 1827 2044 1671 1952 1612 1160 833
5 6 6 7 6 3 4 4 4 4 6 9 6 4 4 8 4 7 3 2 4 2 1 1 1 0 0 1 0 0 0 0 0 0 0 0 0 7 578 1776 2246 1420 638 284 252 398 500 622 610 1384 1356 1287 1427 1179 815 1126 1125 1246 1027 895 874 1195 1232 1145 1157 1286 998 1110 1104 1235 1242 1196 1755 1521 1558 1137 1723 1023 1533 1795 1842 1802 1778 1799 1799 1650 1166 1008
10 11 9 9 8 8 8 6 6 4 6 10 8 7 10 7 3 5 6 2 3 2 1 1 2 0 0 0 0 0 0 0 0 38 183 0 0 63 1070 2395 2194 1028 514 327 480 287 404 609 678 1399 1388 1310 1263 1177 1022 1001 1125 1073 1224 1283 1151 1270 1169 1146 1304 1461 1505 1361 1536 1240 1470 1422 1416 1232 1387 1553 1668 1504 1166 1783 1781 1982 1279 1772 1632 1575 1222 945
11 9 8 10 9 9 7 10 8 6 6 11 12 12 10 5 3 4 4 3 3 3 1 2 0 1 0 0 0 0 0 0 0 0 4 0 0 281 1873 2509 2238 984 454 340 229 199 274 472 683 1277 1523 1386 1254 1084 1171 1216 1090 923 776 902 1165 1454 1378 1493 1490 1276 1178 1342 1470 1664 1608 1459 1292 1070 1254 1568 1599 1401 2154 1743 2084 2194 2102 2004 1870 1649 1242 1002
9 10 10 9 9 8 6 9 10 12 10 12 18 16 8 6 8 6 1 2 3 2 2 1 2 0 0 0 0 0 0 0 0 42 1 0 0 1022 2208 1350 1466 889 317 88 252 139 150 372 646 1236 1499 1593 1489 1004 1392 1198 1300 1186 956 1018 1140 1260 1600 1696 1386 1314 1473 1402 1623 1616 1608 1549 1223 1018 1158 1422 1558 1687 2055 1835 2188 2206 2013 1997 2198 1880 1218 923
10 10 11 8 8 10 10 8 11 15 12 16 18 20 12 8 10 6 2 2 2 2 2 1 1 0 0 0 0 0 0 0 0 3 0 0 33 1590 1277 1139 944 516 134 89 185 86 76 275 466 1040 1526 1372 1572 1378 1519 1421 1225 1103 1311 1148 1391 1501 1547 1495 1570 1668 1684 1508 1426 1476 1495 1332 1257 1383 1224 1312 1448 1800 1782 1820 1948 2130 2342 1985 1930 1628 1356 1310
9 10 12 8 10 12 11 9 12 18 20 18 17 15 12 6 6 4 1 1 2 2 2 2 0 3 0 0 0 0 0 0 1 61 0 0 357 1008 788 682 765 374 77 110 106 94 2 228 286 840 1251 1333 1137 1615 1471 1224 1290 1086 1164 1200 1293 1327 1508 1780 1762 1972 1726 1496 1392 1092 1292 1406 1378 804 675 1165 1638 1738 1653 1520 1718 1657 1211 1291 1177 1662 1440 1522
8 10 9 13 15 15 7 7 9 14 18 17 10 12 11 10 8 1 2 1 1 2 2 2 1 0 0 0 0 0 0 0 17 82 0 0 594 738 584 672 519 210 153 155 50 105 12 206 282 1102 726 1471 1389 1570 1238 1220 1225 1030 1018 938 1184 1420 1572 1583 1741 1977 1672 1916 1135 1148 1250 1145 1104 597 632 1002 1572 1780 1688 1576 1512 1530 1490 1565 1416 1139 1120 1280
7 8 8 10 15 13 7 6 11 12 11 8 8 10 11 11 4 3 1 1 1 1 0 1 0 0 0 0 0 0 0 0 58 78 0 12 536 629 462 628 499 291 116 150 72 156 98 284 275 831 1274 715 1351 827 789 1030 474 379 544 1005 1497 1298 1596 1710 2086 2120 1541 2020 1018 819 948 881 1093 736 1207 1460 1662 1693 1585 1556 1578 1108 1608 1045 1093 1146 1000 1037
6 6 8 12 14 11 8 7 8 9 4 9 12 10 4 3 4 0 2 2 0 0 0 0 0 0 0 0 0 0 0 0 26 0 0 20 530 717 889 661 507 350 165 128 64 74 110 276 413 734 1114 994 723 873 674 288 407 429 764 1218 1342 1103 1135 1824 1886 1911 1572 1583 1188 1155 497 160 480 544 1589 1705 1451 1503 1516 1418 1123 877 1038 1654 894 863 812 882
6 6 13 13 12 7 7 6 5 8 6 9 10 7 4 2 2 2 2 2 1 0 0 2 0 0 0 0 0 0 0 3 22 0 0 176 834 936 741 703 272 219 21 134 53 134 214 322 396 416 403 337 693 468 523 539 601 712 908 905 1072 442 724 1631 2016 1854 1761 1338 1253 1182 547 96 755 655 852 1692 1726 1561 1262 1296 1297 1191 915 831 956 815 971 1178
6 10 12 10 9 7 10 12 12 10 8 6 4 3 1 0 2 2 1 0 0 0 0 2 0 0 0 0 0 0 0 32 73 40 254 668 394 314 384 68 0 0 0 0 40 24 182 257 304 354 347 272 262 475 712 723 762 868 858 1139 814 538 447 1916 1532 1162 972 1421 914 939 332 257 549 619 691 1679 1712 1500 1211 1204 1222 1224 1026 869 660 1064 667 1043
7 9 10 10 10 6 11 15 19 14 9 2 2 2 2 0 1 1 0 1 1 0 2 0 0 0 0 0 0 0 0 132 408 168 100 8 48 6 159 10 0 0 0 0 0 0 0 217 201 270 203 180 351 562 614 652 1035 843 546 412 512 486 412 374 1441 1415 741 1155 1053 807 652 455 347 524 520 763 1390 1440 1324 1204 1409 1304 1172 968 934 955 1626 1175
8 8 8 10 12 8 6 11 12 6 2 0 0 0 0 0 0 0 1 0 0 0 0 0 0 0 0 0 0 0 0 0 125 0 0 0 0 76 55 0 0 0 0 0 0 0 0 0 178 88 110 204 480 530 576 548 627 692 650 672 558 436 378 425 1283 1278 1328 622 390 918 776 505 474 375 716 778 1195 1430 1165 1074 1265 1272 1422 1503 1249 1192 1000 1469
8 8 8 8 10 8 5 7 9 4 0 0 0 0 0 0 0 0 0 0 0 0 0 0 0 0 0 0 0 0 0 0 0 0 0 0 0 31 6 0 0 0 0 0 0 0 0 0 0 157 251 277 367 475 613 728 613 449 628 646 566 469 331 185 329 697 743 1194 778 816 864 770 632 560 638 1193 1358 1608 1271 1075 1117 1038 926 1114 1048 1133 1013 1660
7 5 8 4 6 8 4 5 4 0 0 0 0 0 0 0 0 0 0 0 0 0 0 0 0 0 0 0 0 0 0 0 0 0 0 0 0 0 0 0 0 0 0 0 0 0 0 0 2 63 192 280 377 392 609 644 487 536 579 689 745 601 416 378 251 394 315 193 665 874 592 364 609 538 849 1024 1222 1480 1185 1076 968 1008 1055 1090 1469 854 927 1419
4 5 2 3 4 8 6 5 4 1 0 0 0 0 0 0 0 0 0 0 0 0 0 0 0 0 0 0 0 0 0 0 0 0 0 0 0 0 0 0 0 0 0 0 0 0 0 0 2 77 134 240 249 437 500 516 472 516 676 741 568 470 393 238 140 288 442 463 659 503 629 659 802 686 1000 1110 1280 1416 1137 554 1007 1038 1480 1502 1299 873 1336 1597
2 1 2 3 3 8 6 2 4 1 0 0 0 0 0 0 0 0 0 0 0 0 0 0 0 0 0 0 0 0 0 0 0 0 0 0 0 0 0 0 0 0 0 0 0 0 0 0 0 0 47 244 417 490 454 461 490 608 601 649 552 248 258 33 197 531 708 130 336 841 563 734 955 912 1041 1140 1106 1128 1189 1188 606 898 780 973 1063 1295 1495 1412
2 2 3 3 5 4 6 2 2 0 0 0 0 0 0 0 0 0 0 0 0 0 0 0 0 0 0 0 0 0 0 0 0 0 0 0 0 0 0 0 0 0 0 0 0 0 0 0 0 0 0 22 276 342 402 429 510 486 526 400 347 364 15 84 634 718 628 431 592 962 742 597 892 784 660 1044 1138 1104 1087 1157 1150 1004 1145 1542 1453 1411 1254 1232
2 3 0 5 2 6 1 5 0 0 0 0 0 0 0 0 0 0 0 0 0 0 0 0 0 0 0 0 0 0 0 0 0 0 0 0 0 0 0 0 0 0 0 0 0 0 0 0 0 0 0 3 60 156 272 385 416 526 468 413 252 64 6 62 919 728 1034 459 459 503 643 702 992 690 586 802 1180 1112 1081 1239 1271 1103 966 698 668 983 1400 1373
3 2 4 2 7 2 4 0 0 0 0 0 0 0 0 0 0 0 0 0 0 0 0 0 0 0 0 0 0 0 0 0 0 0 0 0 0 0 0 0 0 0 0 0 0 0 0 97 157 128 3 1 52 166 309 483 516 360 267 238 135 5 0 0 57 333 437 805 848 861 916 976 1110 850 619 1076 985 868 822 987 1305 1122 1018 1316 1230 1301 1439 1456
3 2 2 6 2 5 1 0 0 0 0 0 0 0 0 0 0 0 0 0 0 0 0 0 0 0 0 0 0 0 0 0 0 0 0 0 0 0 0 0 0 0 0 0 0 0 0 21 227 274 230 164 300 331 346 406 347 270 157 30 0 0 4 29 85 428 501 792 1087 802 376 959 1220 704 722 806 856 734 494 616 682 689 947 904 993 1258 1376 1560
2 3 2 1 6 1 2 0 0 0 0 0 0 0 0 0 0 0 0 0 0 0 0 0 0 0 0 0 0 0 0 0 0 0 0 0 0 0 0 0 0 0 0 0 0 0 0 0 30 132 197 260 317 175 275 204 262 196 294 25 10 10 39 190 284 378 468 324 1258 447 312 216 968 1065 707 590 533 730 349 629 898 1002 1136 864 798 1114 1340 1392
0 2 4 2 3 1 0 0 0 0 0 0 0 0 0 0 0 0 0 0 0 0 0 0 0 0 0 0 0 0 0 0 0 0 0 0 0 0 0 0 0 0 0 0 0 0 0 0 6 16 24 135 258 309 306 206 150 228 78 16 17 107 156 364 270 358 426 455 709 688 663 394 144 1168 916 516 511 686 579 532 573 1210 614 831 878 1148 1196 1261
2 2 3 4 2 1 0 0 0 0 0 0 0 0 0 0 0 0 0 0 0 0 0 0 0 0 0 0 0 0 0 0 0 0 0 0 0 0 0 0 0 0 0 0 0 0 0 0 0 2 60 208 329 182 184 42 100 137 61 27 99 385 420 404 380 460 592 515 468 1291 541 550 596 1250 879 537 442 467 632 398 618 933 1138 1126 1130 1152 1412 1336
1 1 2 2 1 0 1 0 0 0 0 0 0 0 0 0 0 0 0 0 0 0 0 0 0 0 0 0 0 0 0 0 0 0 0 0 0 0 0 0 0 0 0 0 0 8 0 26 19 62 141 15 110 56 60 57 64 129 48 17 30 364 667 625 342 322 523 737 489 353 510 198 242 1130 953 838 491 671 514 616 424 954 1091 1080 1032 1176 1048 922
0 0 0 2 6 0 0 0 0 0 0 0 0 0 0 0 0 0 0 0 0 0 0 0 0 0 0 0 0 0 0 0 0 0 0 0 0 2 26 51 13 0 0 0 0 0 0 180 219 193 197 142 180 169 114 82 57 23 13 15 67 219 516 616 484 257 302 1000 372 94 366 197 144 684 876 723 716 601 639 844 798 883 1322 1185 1200 1184 1147 1063
0 0 0 2 0 0 0 0 0 0 0 0 0 0 0 0 0 1 0 0 0 0 0 0 0 0 0 0 0 0 0 0 0 0 0 0 0 0 16 7 40 48 10 26 2 0 0 0 42 84 64 90 60 73 48 64 49 20 28 5 64 145 369 582 607 755 472 150 275 138 54 304 388 155 672 490 213 188 640 809 746 539 1053 1076 1040 1009 1088 878
0 0 0 0 0 0 0 0 0 0 0 0 0 0 0 0 0 0 0 0 0 0 0 0 0 0 0 0 0 0 0 0 0 0 0 0 1 0 28 30 30 36 35 48 31 4 20 39 62 56 100 24 13 88 133 141 86 34 21 82 178 218 208 91 258 228 47 24 82 228 386 367 896 326 120 326 166 100 635 802 708 654 830 994 671 510 460 752
0 0 0 0 0 0 0 0 0 0 0 0 0 0 0 1 0 0 0 0 0 0 0 0 0 0 0 0 0 0 0 0 0 0 0 0 1 6 21 39 119 7 47 3 0 9 11 0 10 47 82 136 36 30 76 126 114 83 79 220 215 202 162 66 0 2 52 144 585 410 564 561 246 42 52 0 109 114 742 976 855 677 766 737 590 611 674 1066
0 0 0 0 0 0 0 0 0 0 0 0 0 0 0 0 0 0 0 0 0 0 0 0 0 0 0 0 0 0 0 0 0 0 0 0 0 3 6 20 81 129 114 92 52 10 0 0 1 30 37 1 6 3 38 26 82 38 88 79 150 146 213 134 5 30 17 4 14 863 622 138 125 676 5 2 6 70 618 1030 955 724 591 619 681 799 924 1052
0 0 0 0 0 0 0 0 0 0 0 0 0 0 0 0 0 0 0 0 0 0 0 0 0 0 0 0 0 0 0 0 0 4 0 0 0 0 3 2 56 101 87 76 45 96 46 14 2 0 0 0 0 5 4 16 10 12 18 57 15 114 162 61 68 21 2 14 76 852 218 78 224 422 320 251 121 24 487 1093 1017 783 718 848 930 952 756 424
0 0 0 0 0 0 0 0 0 0 0 0 0 0 0 0 0 0 0 0 0 0 0 0 0 0 0 0 0 0 0 0 0 0 0 1 0 0 0 0 19 33 127 90 96 17 0 0 0 0 0 0 0 17 14 0 92 85 16 48 100 40 0 9 9 35 122 149 221 2 94 0 0 329 267 476 377 211 542 992 990 897 823 746 765 827 654 572
0 0 0 0 0 0 0 0 0 0 0 0 0 0 0 0 0 0 0 0 0 0 0 0 0 0 0 0 0 0 0 0 0 0 0 0 0 0 2 2 13 32 36 84 54 3 27 0 0 0 0 0 8 14 4 0 0 0 0 9 7 0 0 1 11 58 27 68 189 9 37 60 44 178 527 744 540 364 499 742 461 858 835 820 863 812 996 999
0 0 0 0 0 0 0 0 0 0 0 0 0 0 0 0 0 0 0 0 0 0 0 0 0 0 0 0 0 0 0 0 0 0 0 0 0 0 0 0 8 55 87 56 49 76 35 4 0 0 0 0 0 2 2 0 0 0 4 0 0 22 124 252 60 82 86 159 100 76 4 69 90 122 32 304 510 442 458 501 379 662 804 878 686 767 712 606
0 0 21 0 0 0 0 0 0 0 0 0 0 3 0 0 0 0 0 0 0 0 0 0 0 0 0 0 0 0 0 0 0 0 0 0 0 0 0 0 4 11 52 70 24 60 49 3 2 0 0 0 0 0 17 8 0 0 0 0 0 0 0 0 28 101 55 152 157 108 10 68 46 5 13 94 441 472 376 330 290 600 591 736 670 652 578 750
0 0 0 0 0 0 0 0 0 0 0 0 0 0 0 0 0 0 0 0 0 0 0 0 0 0 0 0 0 0 0 0 0 0 0 0 0 0 0 0 0 4 6 50 102 41 72 15 28 0 0 0 0 0 1 15 0 0 0 0 0 0 27 8 0 2 94 120 108 159 100 22 72 0 66 131 384 560 402 376 191 166 204 154 277 429 684 431
0 0 0 0 0 0 0 0 0 0 0 0 0 0 0 0 0 0 0 0 0 0 0 0 0 0 0 0 0 0 0 0 0 0 0 0 0 0 0 0 0 13 0 26 39 103 71 79 15 18 1 0 0 0 0 0 0 0 0 0 0 0 13 3 38 123 78 102 102 71 83 22 45 34 61 164 416 622 395 484 225 149 44 86 59 192 296 597
0 0 0 0 0 0 0 0 0 0 0 0 0 0 3 0 0 0 0 0 0 0 0 0 0 0 0 0 0 0 0 0 0 0 0 0 0 0 0 1 8 33 16 68 26 68 29 86 76 38 18 19 2 0 0 0 0 0 0 0 0 0 0 10 0 79 121 98 87 23 0 110 58 127 48 199 616 639 399 176 143 13 0 0 6 127 336 579
0 0 0 0 0 0 0 0 0 0 0 0 0 0 0 0 0 0 0 0 0 0 0 0 0 0 0 2 0 0 0 0 0 0 0 0 0 0 0 0 9 37 3 39 0 38 93 27 26 5 6 6 1 1 0 0 0 0 0 0 0 0 0 0 26 214 101 45 0 0 0 56 184 386 285 255 694 704 500 258 85 0 0 0 11 52 193 515
0 0 0 0 0 0 0 0 0 0 0 0 0 0 0 0 0 1 0 0 0 0 0 0 0 0 31 22 2 0 0 0 0 0 0 0 2 0 0 0 0 0 0 6 0 132 28 62 18 78 31 4 0 0 0 0 0 0 0 0 0 0 0 0 18 139 10 0 0 0 0 4 101 86 239 262 456 939 622 445 197 74 15 37 64 153 282 615
0 0 0 0 0 0 0 0 0 0 0 0 0 0 0 0 0 0 0 0 0 0 6 4 8 8 32 39 19 12 0 20 0 0 37 0 9 2 5 0 0 0 0 0 169 35 0 151 61 47 71 12 3 9 4 0 0 0 0 0 0 0 0 0 0 6 0 24 93 0 0 2 0 134 48 73 357 1218 1027 634 446 256 164 124 119 184 450 766
0 0 0 0 0 0 0 0 0 0 0 0 0 0 0 0 0 0 0 0 0 0 7 12 19 36 46 46 76 73 67 46 123 64 81 67 48 38 16 0 0 0 58 340 16 8 0 78 134 54 103 31 20 0 0 0 0 0 0 0 0 0 0 0 0 2 0 308 101 0 0 0 0 0 0 2 227 826 1104 999 565 360 260 324 470 618 624 882
0 0 0 0 0 0 0 0 0 0 0 0 25 0 0 0 0 0 0 0 0 0 3 11 22 38 29 34 11 16 31 40 63 68 54 46 50 34 14 16 11 50 36 14 44 0 7 28 9 21 22 9 0 0 0 0 0 0 0 0 0 0 0 0 0 100 764 0 0 526 972 225 44 0 0 100 229 344 861 1268 1071 838 644 425 493 1118 1160 1179
0 0 0 0 0 0 0 0 0 0 0 0 0 0 0 0 0 0 0 0 0 0 9 0 8 6 18 38 74 19 67 55 84 128 45 38 35 25 42 9 36 314 410 91 5 2 22 0 0 0 0 0 0 0 0 0 0 0 0 0 0 0 0 74 41 0 87 2 0 1475 1257 610 222 0 32 292 264 371 576 1022 1346 1299 1142 1022 1004 1129 1048 1591
0 0 0 0 0 0 0 0 0 0 0 0 0 0 0 0 0 0 0 0 0 0 0 5 0 0 14 35 82 88 111 74 93 97 64 104 76 68 41 132 17 29 136 69 7 4 2 0 0 0 0 0 0 0 0 0 0 0 0 0 5 0 4 25 47 139 188 244 238 320 403 185 1 0 163 398 399 277 1107 1272 1327 1458 1412 1534 1439 1417 1114 1289
0 0 0 0 0 0 0 0 0 0 0 0 0 0 0 0 0 0 0 0 0 0 0 0 0 0 2 12 40 44 12 22 33 176 46 39 128 68 66 44 30 36 2 5 6 0 0 3 26 0 0 0 0 0 0 0 0 7 62 40 4 2 0 22 92 306 384 300 187 166 186 116 337 88 611 756 432 447 1037 1353 1066 1291 1501 1971 1776 1420 1270 1466
0 0 0 0 0 0 0 0 0 0 0 0 0 0 0 0 0 0 0 0 0 0 0 0 0 0 0 5 1 0 0 0 1 12 10 8 56 57 44 136 14 48 47 5 0 55 0 0 0 0 0 0 0 0 0 0 9 108 201 82 16 0 6 12 22 478 402 313 318 160 33 76 826 1513 1245 1009 448 903 1278 1442 1516 1434 1275 1492 1764 1851 1696 1516
0 0 0 0 0 0 0 0 0 0 0 0 0 0 0 0 0 0 0 0 0 0 0 0 0 0 0 0 0 0 0 0 0 0 0 0 1 4 7 18 18 26 30 82 46 113 86 14 0 0 0 0 0 0 0 0 10 0 0 67 280 236 560 483 630 668 1212 845 535 354 166 757 1373 1587 1487 978 539 884 931 922 1088 1192 1218 1495 1473 1572 1769 1603
Wind_Speed
nan nan nan nan nan nan nan nan nan nan nan nan nan nan nan nan nan nan nan nan nan nan nan nan nan nan nan nan nan nan nan nan nan nan nan nan nan nan nan 18 23 20 20 17 15 14 12 10 9 8 5 5 4 6 6 8 7 8 8 5 3 2 3 3 0 1 2 5 6 8 9 11 9 10 10 6 6 4 6 5 8 8 9 10 10 11 10 12
nan nan nan nan nan nan nan nan nan nan nan nan nan nan nan nan nan nan nan nan nan nan nan nan nan nan nan nan nan nan nan nan nan nan nan nan nan nan nan 22 23 20 21 16 17 13 12 10 9 8 6 4 4 3 6 6 7 7 4 5 2 1 5 3 0 2 3 3 6 5 5 7 10 10 12 5 9 6 4 6 7 7 9 11 9 12 11 11
nan nan nan nan nan nan nan nan nan nan nan nan nan nan nan nan nan nan nan nan nan nan nan nan nan nan nan nan nan nan nan nan nan nan nan nan nan nan nan 22 21 20 17 15 12 10 8 9 10 8 5 2 4 4 8 5 7 6 6 3 2 2 3 6 5 4 4 5 5 4 3 3 7 7 12 6 9 6 2 5 6 6 8 10 9 12 11 10
nan nan nan nan nan nan nan nan nan nan nan nan nan nan nan nan nan nan nan nan nan nan nan nan nan nan nan nan nan nan nan nan nan nan nan nan nan nan 21 22 20 20 12 10 9 7 5 8 8 5 5 1 2 3 4 5 6 3 8 4 2 2 4 5 5 5 5 5 5 2 2 3 4 5 5 9 6 7 2 3 5 6 8 11 11 12 9 11
nan nan nan nan nan nan nan nan nan nan nan nan nan nan nan nan nan nan nan nan nan nan nan nan nan nan nan nan nan nan nan nan nan nan nan nan nan nan 21 21 22 18 11 9 8 5 5 8 7 3 1 2 2 2 5 5 5 4 8 6 5 5 8 5 5 6 6 5 5 3 1 3 10 4 4 5 5 11 6 3 3 6 10 10 13 12 7 9
nan nan nan nan nan nan nan nan nan nan nan nan nan nan nan nan nan nan nan nan nan nan nan nan nan nan nan nan nan nan nan nan nan nan 14 nan nan nan 20 21 22 14 10 11 8 7 7 6 5 3 2 2 3 1 5 2 5 5 8 9 6 5 8 8 9 8 9 7 7 6 5 2 3 6 6 4 4 13 13 12 4 6 9 7 10 13 7 8
nan nan nan nan nan nan nan nan nan nan nan nan nan nan nan nan nan nan nan nan nan nan nan nan nan nan nan nan nan nan nan nan nan nan nan nan nan 21 20 22 20 12 12 12 8 7 5 5 4 2 3 3 3 3 1 1 5 5 6 6 7 6 10 9 10 10 12 11 10 8 7 5 3 3 8 3 4 9 16 13 9 7 7 9 9 9 8 7
nan nan nan nan nan nan nan nan nan nan nan nan nan nan nan nan nan nan nan nan nan nan nan nan nan nan nan nan nan nan nan nan nan nan nan nan nan 22 22 20 17 13 13 nan 10 6 6 3 2 5 3 5 11 3 5 2 5 5 6 5 7 7 8 9 9 10 9 11 12 14 12 8 4 3 8 3 5 9 13 13 10 7 8 10 6 8 9 8
nan nan nan nan nan nan nan nan nan nan nan nan nan nan nan nan nan nan nan nan nan nan nan nan nan nan nan nan nan nan nan nan nan nan nan nan nan 25 22 16 13 12 11 nan 8 nan nan 2 1 2 10 5 7 4 3 3 3 4 7 10 10 9 8 8 9 11 12 13 14 17 15 9 5 6 4 3 6 9 13 13 11 8 13 10 7 10 9 8
nan nan nan nan nan nan nan nan nan nan nan nan nan nan nan nan nan nan nan nan nan nan nan nan nan nan nan nan nan nan nan nan nan nan nan nan 25 24 19 16 16 12 nan 11 8 nan nan 5 4 6 13 8 8 6 7 0 6 2 7 11 12 11 9 8 9 10 13 14 14 16 15 10 9 5 7 8 7 9 11 12 13 9 10 10 10 13 9 9
nan nan nan nan nan nan nan nan nan nan nan nan nan nan nan nan nan nan nan nan nan nan nan nan nan nan nan nan nan nan nan nan nan nan nan nan 26 21 18 15 14 12 11 12 nan 4 nan 10 6 10 9 12 8 5 3 4 4 3 8 12 12 10 9 8 12 12 14 17 16 15 14 12 12 6 6 13 12 9 10 11 12 8 12 11 13 13 14 16
nan nan nan nan nan nan nan nan nan nan nan nan nan nan nan nan nan nan nan nan nan nan nan nan nan nan nan nan nan nan nan nan nan nan nan nan 20 18 15 14 12 8 9 10 nan 3 nan 8 8 6 12 13 7 11 4 6 3 5 7 10 7 8 12 12 14 16 14 15 15 14 13 16 16 7 9 10 12 11 9 9 11 7 10 10 8 13 20 21
nan nan nan nan nan nan nan nan nan nan nan nan nan nan nan nan nan nan nan nan nan nan nan nan nan nan nan nan nan nan nan nan nan nan nan nan 20 17 15 15 11 6 3 3 nan nan 6 9 7 8 10 12 14 10 14 10 6 4 6 6 8 9 14 15 15 18 18 16 14 15 13 16 15 11 12 11 11 11 9 6 8 8 11 9 10 12 15 20
nan nan nan nan nan nan nan nan nan nan nan nan nan nan nan nan nan nan nan nan nan nan nan nan nan nan nan nan nan nan nan nan nan nan nan 26 24 22 18 18 15 10 nan 5 nan 7 5 10 12 12 16 12 12 16 10 7 2 1 2 3 5 1 11 19 17 19 17 18 17 18 13 nan 16 12 12 10 9 9 8 6 5 11 7 7 9 16 18 16
nan nan nan nan nan nan nan nan nan nan nan nan nan nan nan nan nan nan nan nan nan nan nan nan nan nan nan nan nan nan nan nan nan nan 31 29 27 26 21 nan nan nan nan nan nan nan 10 11 11 11 11 12 9 9 10 5 3 3 2 5 5 2 11 21 17 21 11 19 16 15 15 12 13 12 11 11 8 9 8 7 6 6 5 6 10 12 13 19
nan nan nan nan nan nan nan nan nan nan nan nan nan nan nan nan nan nan nan nan nan nan nan nan nan nan nan nan nan nan nan 28 31 32 nan nan nan nan 23 nan nan nan nan nan nan nan nan 9 9 12 13 10 8 9 10 7 6 6 3 5 3 3 4 11 20 20 15 19 18 15 11 9 17 11 11 9 7 8 8 7 7 5 5 6 10 13 19 13
nan nan nan nan nan nan nan nan nan nan nan nan nan nan nan nan nan nan nan nan nan nan nan nan nan nan nan nan nan nan nan nan 32 nan nan nan nan nan nan nan nan nan nan nan nan nan nan nan 10 nan 9 12 13 13 11 7 8 8 7 7 6 5 3 6 19 15 19 15 11 20 15 11 11 10 11 9 8 8 9 7 7 9 10 13 15 19 20 17
nan nan nan nan nan nan nan nan nan nan nan nan nan nan nan nan nan nan nan nan nan nan nan nan nan nan nan nan nan nan nan nan nan nan nan nan nan nan nan nan nan nan nan nan nan nan nan nan nan 11 11 9 10 11 10 13 15 12 12 10 7 6 2 5 5 17 15 17 10 13 14 12 12 10 11 11 11 9 8 9 8 10 11 12 15 19 19 17
nan nan nan nan nan nan nan nan nan nan nan nan nan nan nan nan nan nan nan nan nan nan nan nan nan nan nan nan nan nan nan nan nan nan nan nan nan nan nan nan nan nan nan nan nan nan nan nan nan nan 9 10 11 10 11 15 16 14 13 10 7 4 4 4 7 13 11 8 14 13 11 11 14 12 12 12 11 10 9 12 10 10 12 15 17 16 14 13
nan nan nan nan nan nan nan nan nan nan nan nan nan nan nan nan nan nan nan nan nan nan nan nan nan nan nan nan nan nan nan nan nan nan nan nan nan nan nan nan nan nan nan nan nan nan nan nan nan nan 12 14 11 10 13 15 15 13 9 8 6 4 2 4 7 11 13 11 12 12 10 13 14 14 15 13 13 11 9 7 14 14 16 15 17 15 16 17
nan nan nan nan nan nan nan nan nan nan nan nan nan nan nan nan nan nan nan nan nan nan nan nan nan nan nan nan nan nan nan nan nan nan nan nan nan nan nan nan nan nan nan nan nan nan nan nan nan nan nan 19 15 15 15 14 13 11 10 7 5 3 3 nan 6 14 15 10 10 13 10 12 14 15 15 15 11 10 10 9 9 7 12 12 12 16 17 15
nan nan nan nan nan nan nan nan nan nan nan nan nan nan nan nan nan nan nan nan nan nan nan nan nan nan nan nan nan nan nan nan nan nan nan nan nan nan nan nan nan nan nan nan nan nan nan nan nan nan nan nan 13 12 14 14 13 11 8 7 4 5 nan nan 14 17 15 12 10 13 9 10 16 14 14 15 10 11 11 11 11 13 13 19 20 18 18 17
nan nan nan nan nan nan nan nan nan nan nan nan nan nan nan nan nan nan nan nan nan nan nan nan nan nan nan nan nan nan nan nan nan nan nan nan nan nan nan nan nan nan nan nan nan nan nan nan nan nan nan nan nan 11 13 13 10 9 7 5 8 nan nan nan 14 16 13 11 6 7 8 10 18 15 14 13 10 12 14 14 14 16 17 16 17 18 17 15
nan nan nan nan nan nan nan nan nan nan nan nan nan nan nan nan nan nan nan nan nan nan nan nan nan nan nan nan nan nan nan nan nan nan nan nan nan nan nan nan nan nan nan nan nan nan nan nan 23 16 nan nan nan 12 12 12 12 9 6 6 7 nan nan nan nan 7 8 14 11 9 11 13 17 17 15 15 12 13 15 17 18 19 22 23 19 18 17 16
nan nan nan nan nan nan nan nan nan nan nan nan nan nan nan nan nan nan nan nan nan nan nan nan nan nan nan nan nan nan nan nan nan nan nan nan nan nan nan nan nan nan nan nan nan nan nan nan 17 20 20 16 15 13 13 16 13 10 8 nan nan nan nan nan nan 5 6 13 17 7 4 14 16 17 15 17 13 11 14 17 18 19 25 24 22 18 18 17
nan nan nan nan nan nan nan nan nan nan nan nan nan nan nan nan nan nan nan nan nan nan nan nan nan nan nan nan nan nan nan nan nan nan nan nan nan nan nan nan nan nan nan nan nan nan nan nan nan 15 15 16 15 14 15 16 13 11 15 nan nan nan nan 3 2 7 6 7 16 12 7 9 18 14 18 17 14 13 15 17 20 21 22 22 23 19 18 17
nan nan nan nan nan nan nan nan nan nan nan nan nan nan nan nan nan nan nan nan nan nan nan nan nan nan nan nan nan nan nan nan nan nan nan nan nan nan nan nan nan nan nan nan nan nan nan nan nan nan nan 14 14 13 15 14 14 11 nan nan nan 10 7 3 4 8 7 9 15 14 10 8 9 16 19 19 17 15 14 15 16 25 22 20 22 21 19 19
nan nan nan nan nan nan nan nan nan nan nan nan nan nan nan nan nan nan nan nan nan nan nan nan nan nan nan nan nan nan nan nan nan nan nan nan nan nan nan nan nan nan nan nan nan nan nan nan nan nan nan 15 14 18 19 nan 13 14 nan nan nan 9 5 0 5 8 9 8 10 17 13 11 13 17 18 21 19 17 17 18 12 19 25 23 23 23 21 22
nan nan nan nan nan nan nan nan nan nan nan nan nan nan nan nan nan nan nan nan nan nan nan nan nan nan nan nan nan nan nan nan nan nan nan nan nan nan nan nan nan nan nan nan nan nan nan nan nan nan 22 nan 19 nan nan nan nan 12 nan nan nan 3 2 1 3 6 10 10 8 13 12 7 9 19 17 20 18 20 20 21 16 12 23 25 23 22 20 18
nan nan nan nan nan nan nan nan nan nan nan nan nan nan nan nan nan nan nan nan nan nan nan nan nan nan nan nan nan nan nan nan nan nan nan nan nan nan nan nan nan nan nan nan nan nan nan 18 22 18 17 19 21 18 16 nan nan nan nan nan nan 1 1 3 3 6 7 10 12 nan 13 9 8 18 17 21 19 20 23 21 16 11 19 24 21 21 23 20
nan nan nan nan nan nan nan nan nan nan nan nan nan nan nan nan nan nan nan nan nan nan nan nan nan nan nan nan nan nan nan nan nan nan nan nan nan nan nan nan nan nan nan nan nan nan nan nan nan nan nan nan nan nan nan nan nan nan nan nan nan 2 4 4 6 7 5 9 14 7 nan 10 8 16 17 18 17 20 28 29 22 12 12 21 21 21 21 18
nan nan nan nan nan nan nan nan nan nan nan nan nan nan nan nan nan nan nan nan nan nan nan nan nan nan nan nan nan nan nan nan nan nan nan nan nan nan nan nan nan nan nan nan nan nan nan nan nan nan nan nan nan nan 13 10 nan nan nan nan 5 5 2 nan 6 5 nan nan nan 8 6 10 14 12 11 18 15 19 28 28 24 13 10 16 15 16 20 21
nan nan nan nan nan nan nan nan nan nan nan nan nan nan nan nan nan nan nan nan nan nan nan nan nan nan nan nan nan nan nan nan nan nan nan nan nan nan nan nan 21 nan nan nan nan nan nan nan nan nan nan 11 nan nan nan 12 13 nan nan 7 6 6 6 nan nan nan nan 10 12 8 10 9 7 nan nan nan 16 19 27 30 29 13 10 12 13 17 20 21
nan nan nan nan nan nan nan nan nan nan nan nan nan nan nan nan nan nan nan nan nan nan nan nan nan nan nan nan nan nan nan nan nan nan nan nan nan nan nan nan nan 18 20 nan nan nan nan nan nan nan nan nan nan nan nan nan nan nan nan nan 8 7 9 7 nan nan nan nan nan 14 6 5 1 9 nan nan nan nan 25 28 29 16 14 19 18 21 21 22
nan nan nan nan nan nan nan nan nan nan nan nan nan nan nan nan nan nan nan nan nan nan nan nan nan nan nan nan nan nan nan nan nan nan nan nan nan nan nan nan nan 21 nan nan nan nan nan nan nan nan nan nan nan nan nan nan nan nan nan nan nan 6 9 nan nan nan nan nan nan 10 6 nan 6 13 13 11 16 nan 26 28 30 21 16 23 21 19 21 20
nan nan nan nan nan nan nan nan nan nan nan nan nan nan nan nan nan nan nan nan nan nan nan nan nan nan nan nan nan nan nan nan nan nan nan nan nan nan nan nan nan nan 15 nan nan nan nan nan nan nan nan nan nan nan nan nan nan nan nan nan 11 nan nan nan nan nan 4 3 5 nan nan nan nan 18 13 13 15 21 26 27 29 25 13 18 17 15 16 15
nan nan nan nan nan nan nan nan nan nan nan nan nan nan nan nan nan nan nan nan nan nan nan nan nan nan nan nan nan nan nan nan nan nan nan nan nan nan nan nan nan nan nan nan nan nan nan nan nan nan nan nan nan nan nan nan nan nan nan nan nan nan nan nan nan nan nan nan 5 nan nan nan nan 9 14 15 17 23 25 26 27 24 15 15 17 16 18 18
nan nan nan nan nan nan nan nan nan nan nan nan nan nan nan nan nan nan nan nan nan nan nan nan nan nan nan nan nan nan nan nan nan nan nan nan nan nan nan nan nan nan nan nan nan nan nan nan nan nan nan nan nan nan nan nan nan nan nan nan nan nan 3 7 nan nan nan 4 4 nan nan nan nan 7 nan 13 17 23 25 26 27 24 14 15 19 18 19 20
nan nan nan nan nan nan nan nan nan nan nan nan nan nan nan nan nan nan nan nan nan nan nan nan nan nan nan nan nan nan nan nan nan nan nan nan nan nan nan nan nan nan nan nan nan nan nan nan nan nan nan nan nan nan nan nan nan nan nan nan nan nan nan nan nan 7 nan 5 4 6 nan nan nan nan nan nan 14 22 26 27 28 24 15 17 23 22 21 22
nan nan nan nan nan nan nan nan nan nan nan nan nan nan nan nan nan nan nan nan nan nan nan nan nan nan nan nan nan nan nan nan nan nan nan nan nan nan nan nan nan nan nan nan 13 nan nan nan nan nan nan nan nan nan nan nan nan nan nan nan nan nan nan nan nan nan nan 6 5 5 3 nan nan nan nan 9 12 20 26 29 26 21 14 18 27 26 24 22
nan nan nan nan nan nan nan nan nan nan nan nan nan nan nan nan nan nan nan nan nan nan nan nan nan nan nan nan nan nan nan nan nan nan nan nan nan nan nan nan nan nan nan nan nan 15 nan nan nan nan nan nan nan nan nan nan nan nan nan nan nan nan nan nan nan 9 nan 3 5 nan nan nan nan nan nan 7 10 17 24 28 28 23 nan nan nan 28 27 26
nan nan nan nan nan nan nan nan nan nan nan nan nan nan nan nan nan nan nan nan nan nan nan nan nan nan nan nan nan nan nan nan nan nan nan nan nan nan nan nan nan nan nan nan nan nan nan nan nan nan nan nan nan nan nan nan nan nan nan nan nan nan nan nan nan nan 5 nan nan nan nan 6 nan 10 nan 7 10 16 23 26 26 nan nan nan nan 27 26 27
nan nan nan nan nan nan nan nan nan nan nan nan nan nan nan nan nan nan nan nan nan nan nan nan nan nan nan nan nan nan nan nan nan nan nan nan nan nan nan nan nan nan nan nan nan nan nan nan nan nan nan nan nan nan nan nan nan nan nan nan nan nan nan nan nan 12 9 nan nan nan nan nan 16 10 6 7 11 15 20 24 nan nan nan nan nan nan 25 24
nan nan nan nan nan nan nan nan nan nan nan nan nan nan nan nan nan nan nan nan nan nan nan nan nan nan nan nan nan nan nan nan nan nan nan nan nan nan nan nan nan nan nan nan nan 24 nan nan nan nan nan nan nan nan nan nan nan nan nan nan nan nan nan nan nan 9 nan nan nan nan nan nan 16 nan 8 5 12 15 17 20 25 nan nan nan nan 13 21 20
nan nan nan nan nan nan nan nan nan nan nan nan nan nan nan nan nan nan nan nan nan nan nan nan nan nan nan nan nan nan nan nan nan nan nan nan nan nan nan nan nan nan nan nan 20 nan nan 20 nan nan nan nan nan nan nan nan nan nan nan nan nan nan nan nan nan nan nan nan nan nan nan nan nan 13 nan nan 9 14 13 16 19 19 12 3 3 7 13 14
nan nan nan nan nan nan nan nan nan nan nan nan nan nan nan nan nan nan nan nan nan nan nan nan nan nan nan nan nan nan nan nan 13 nan nan nan nan nan nan nan nan nan nan 12 nan nan nan nan 15 nan 18 nan nan nan nan nan nan nan nan nan nan nan nan nan nan nan nan 9 5 nan nan nan nan nan nan nan 5 13 14 13 13 15 14 7 8 9 8 8
nan nan nan nan nan nan nan nan nan nan nan nan nan nan nan nan nan nan nan nan nan nan nan nan nan nan nan nan nan nan nan nan nan nan nan nan nan nan nan nan nan nan nan nan nan nan nan nan nan nan nan nan nan nan nan nan nan nan nan nan nan nan nan nan nan 6 10 nan nan 10 6 5 nan nan nan nan 7 8 11 12 14 11 12 9 9 13 12 9
nan nan nan nan nan nan nan nan nan nan nan nan nan nan nan nan nan nan nan nan nan nan nan nan nan nan nan nan nan nan nan nan nan 19 nan nan nan nan nan nan nan 13 8 nan nan nan nan nan nan nan nan nan nan nan nan nan nan nan nan nan nan nan nan nan nan nan nan nan nan 6 8 8 9 nan nan 10 7 4 8 11 13 14 11 9 9 12 13 13
nan nan nan nan nan nan nan nan nan nan nan nan nan nan nan nan nan nan nan nan nan nan nan nan nan nan nan nan nan nan 19 nan nan nan nan 22 nan nan nan 8 nan nan 10 nan nan nan nan nan nan nan nan nan nan nan nan nan nan nan nan nan nan nan nan nan nan 6 4 4 6 9 12 11 nan nan 10 10 9 7 13 12 12 13 14 11 7 8 12 15
nan nan nan nan nan nan nan nan nan nan nan nan nan nan nan nan nan nan nan nan nan nan nan nan nan nan nan nan nan nan nan nan nan 20 nan nan 18 nan nan nan nan nan nan nan nan nan nan nan nan nan nan nan nan nan nan nan nan nan nan nan nan nan nan nan nan 7 5 6 8 10 14 12 13 nan 7 8 9 11 14 16 14 14 15 15 10 7 10 14
nan nan nan nan nan nan nan nan nan nan nan nan nan nan nan nan nan nan nan nan nan nan nan nan nan nan nan nan nan nan nan nan nan nan nan nan nan nan nan 19 nan nan nan nan nan nan nan nan nan nan nan nan nan nan nan nan nan 17 18 nan nan nan nan nan nan 12 7 9 13 15 nan nan 6 6 7 6 9 11 18 19 19 17 18 20 15 11 10 11
nan nan nan nan nan nan nan nan nan nan nan nan nan nan nan nan nan nan nan nan nan nan nan nan nan nan nan nan nan nan nan nan nan nan nan nan nan nan nan nan nan nan nan nan nan 8 nan nan nan nan nan nan nan nan nan nan nan nan nan nan 20 18 19 18 15 12 10 11 13 18 14 11 8 7 4 8 10 14 18 20 22 22 23 25 23 14 11 10
Wind_Direction
nan nan nan nan nan nan nan nan nan nan nan nan nan nan nan nan nan nan nan nan nan nan nan nan nan nan nan nan nan nan nan nan nan nan nan nan nan nan nan 313 326 338 328 335 323 335 339 342 335 334 343 26 28 38 13 39 45 41 30 31 334 336 287 249 195 157 174 109 204 203 209 200 212 255 267 277 315 278 255 220 226 211 201 217 262 289 255 240
nan nan nan nan nan nan nan nan nan nan nan nan nan nan nan nan nan nan nan nan nan nan nan nan nan nan nan nan nan nan nan nan nan nan nan nan nan nan nan 324 334 330 337 330 338 341 332 340 325 340 331 24 48 48 24 20 30 46 41 37 349 12 298 14 33 68 99 141 160 156 191 198 210 222 267 269 287 303 277 235 235 222 226 244 276 285 251 237
nan nan nan nan nan nan nan nan nan nan nan nan nan nan nan nan nan nan nan nan nan nan nan nan nan nan nan nan nan nan nan nan nan nan nan nan nan nan nan 333 334 334 343 329 341 340 333 320 320 338 334 347 14 39 36 26 39 42 71 25 351 5 29 19 26 61 68 100 120 154 189 194 210 214 258 269 270 287 319 263 246 225 246 275 291 290 248 227
nan nan nan nan nan nan nan nan nan nan nan nan nan nan nan nan nan nan nan nan nan nan nan nan nan nan nan nan nan nan nan nan nan nan nan nan nan nan 334 334 328 339 336 330 333 332 304 301 312 350 310 95 308 19 38 3 45 355 56 55 59 9 62 321 24 42 59 59 85 108 198 178 210 226 251 256 254 273 259 290 264 246 263 284 302 303 250 217
nan nan nan nan nan nan nan nan nan nan nan nan nan nan nan nan nan nan nan nan nan nan nan nan nan nan nan nan nan nan nan nan nan nan nan nan nan nan 329 330 327 339 335 318 318 296 312 309 320 348 304 263 305 26 63 0 49 73 59 81 83 51 46 50 58 47 49 35 34 24 26 196 237 252 254 250 238 251 256 317 247 230 267 288 307 307 249 222
nan nan nan nan nan nan nan nan nan nan nan nan nan nan nan nan nan nan nan nan nan nan nan nan nan nan nan nan nan nan nan nan nan nan 246 nan nan nan 324 323 333 338 325 319 311 308 312 313 329 324 285 158 302 75 278 53 348 53 26 36 50 60 61 53 56 42 32 38 20 3 335 262 235 214 257 245 239 236 206 209 233 220 275 291 297 305 263 209
nan nan nan nan nan nan nan nan nan nan nan nan nan nan nan nan nan nan nan nan nan nan nan nan nan nan nan nan nan nan nan nan nan nan nan nan nan 312 318 320 338 335 327 319 316 309 325 319 11 278 230 207 198 146 203 7 349 46 85 98 82 70 62 57 56 44 34 35 26 359 333 351 265 203 243 235 244 211 215 211 203 220 251 274 295 309 283 222
nan nan nan nan nan nan nan nan nan nan nan nan nan nan nan nan nan nan nan nan nan nan nan nan nan nan nan nan nan nan nan nan nan nan nan nan nan 309 316 322 332 326 330 nan 312 317 311 339 3 243 209 196 229 187 235 135 13 34 59 71 85 62 48 51 45 38 27 21 8 0 356 347 315 199 226 212 208 217 219 213 220 231 248 263 271 284 277 245
nan nan nan nan nan nan nan nan nan nan nan nan nan nan nan nan nan nan nan nan nan nan nan nan nan nan nan nan nan nan nan nan nan nan nan nan nan 312 319 313 333 330 331 nan 315 nan nan 299 162 215 213 207 250 176 245 153 292 34 90 99 88 75 68 56 49 31 12 357 354 0 2 350 322 239 159 181 208 218 219 215 227 241 247 260 252 257 257 233
nan nan nan nan nan nan nan nan nan nan nan nan nan nan nan nan nan nan nan nan nan nan nan nan nan nan nan nan nan nan nan nan nan nan nan nan 303 312 323 311 324 332 nan 325 325 nan nan 235 170 232 197 192 204 204 204 290 232 265 102 97 91 84 66 29 18 358 354 1 352 4 360 341 302 272 238 245 232 221 215 212 229 249 257 261 250 240 235 210
nan nan nan nan nan nan nan nan nan nan nan nan nan nan nan nan nan nan nan nan nan nan nan nan nan nan nan nan nan nan nan nan nan nan nan nan 304 311 316 309 320 322 329 327 nan 336 nan 196 213 210 194 204 204 204 226 203 209 125 108 99 82 57 15 2 354 353 358 353 353 0 4 350 324 305 216 257 248 230 216 214 233 247 260 251 242 237 188 174
nan nan nan nan nan nan nan nan nan nan nan nan nan nan nan nan nan nan nan nan nan nan nan nan nan nan nan nan nan nan nan nan nan nan nan nan 297 299 290 291 305 313 330 332 nan 304 nan 200 221 208 207 212 199 193 200 222 180 142 109 99 78 43 353 341 340 345 353 345 352 346 7 8 344 317 279 254 251 242 221 219 238 252 266 274 245 193 181 164
nan nan nan nan nan nan nan nan nan nan nan nan nan nan nan nan nan nan nan nan nan nan nan nan nan nan nan nan nan nan nan nan nan nan nan nan 277 271 259 273 282 264 299 305 nan nan 240 208 193 192 182 182 188 184 199 152 142 123 78 69 79 3 346 338 337 343 351 326 348 345 345 327 340 309 292 274 255 250 235 228 242 243 241 237 206 183 167 155
nan nan nan nan nan nan nan nan nan nan nan nan nan nan nan nan nan nan nan nan nan nan nan nan nan nan nan nan nan nan nan nan nan nan nan 268 270 262 266 265 255 252 nan 213 nan 223 201 201 206 190 191 182 189 199 164 157 132 120 184 24 30 42 318 338 343 336 346 322 346 348 344 nan 324 308 294 279 258 254 243 232 234 248 236 212 175 163 163 163
nan nan nan nan nan nan nan nan nan nan nan nan nan nan nan nan nan nan nan nan nan nan nan nan nan nan nan nan nan nan nan nan nan nan 259 266 264 262 266 nan nan nan nan nan nan nan 201 189 190 191 190 219 194 177 169 170 230 243 60 344 338 350 300 335 341 336 339 327 346 346 347 310 314 302 290 277 256 246 229 233 220 241 263 175 167 151 175 163
nan nan nan nan nan nan nan nan nan nan nan nan nan nan nan nan nan nan nan nan nan nan nan nan nan nan nan nan nan nan nan 249 249 251 nan nan nan nan 267 nan nan nan nan nan nan nan nan 203 193 191 183 190 181 190 174 169 276 280 188 215 225 252 276 326 335 338 331 328 338 348 334 337 313 304 288 274 247 242 228 225 219 223 233 195 161 165 180 181
nan nan nan nan nan nan nan nan nan nan nan nan nan nan nan nan nan nan nan nan nan nan nan nan nan nan nan nan nan nan nan nan 251 nan nan nan nan nan nan nan nan nan nan nan nan nan nan nan 219 nan 192 188 199 195 176 202 242 252 225 207 213 215 252 283 319 332 336 343 346 343 349 324 317 300 287 272 244 238 233 229 222 217 210 194 179 184 187 178
nan nan nan nan nan nan nan nan nan nan nan nan nan nan nan nan nan nan nan nan nan nan nan nan nan nan nan nan nan nan nan nan nan nan nan nan nan nan nan nan nan nan nan nan nan nan nan nan nan 189 215 224 220 206 185 223 217 207 207 202 212 198 254 251 272 313 343 339 347 340 354 352 319 313 294 273 245 238 238 235 222 220 214 203 185 191 182 186
nan nan nan nan nan nan nan nan nan nan nan nan nan nan nan nan nan nan nan nan nan nan nan nan nan nan nan nan nan nan nan nan nan nan nan nan nan nan nan nan nan nan nan nan nan nan nan nan nan nan 197 223 228 205 193 192 196 193 200 202 182 175 202 232 276 308 326 339 345 346 350 322 323 317 302 281 253 242 236 227 215 211 221 201 193 194 187 186
nan nan nan nan nan nan nan nan nan nan nan nan nan nan nan nan nan nan nan nan nan nan nan nan nan nan nan nan nan nan nan nan nan nan nan nan nan nan nan nan nan nan nan nan nan nan nan nan nan nan 210 216 220 211 188 186 188 186 197 202 191 158 130 280 283 294 323 339 338 338 344 339 328 319 310 297 264 242 238 260 221 194 216 200 193 188 200 190
nan nan nan nan nan nan nan nan nan nan nan nan nan nan nan nan nan nan nan nan nan nan nan nan nan nan nan nan nan nan nan nan nan nan nan nan nan nan nan nan nan nan nan nan nan nan nan nan nan nan nan 218 208 208 199 189 190 189 198 203 197 169 228 nan 274 301 317 321 325 333 347 345 332 322 313 305 279 251 241 231 243 210 224 205 191 198 200 200
nan nan nan nan nan nan nan nan nan nan nan nan nan nan nan nan nan nan nan nan nan nan nan nan nan nan nan nan nan nan nan nan nan nan nan nan nan nan nan nan nan nan nan nan nan nan nan nan nan nan nan nan 210 194 194 189 186 188 202 211 194 223 nan nan 299 308 312 327 315 324 357 338 332 333 319 318 294 253 238 230 214 208 215 210 198 198 205 194
nan nan nan nan nan nan nan nan nan nan nan nan nan nan nan nan nan nan nan nan nan nan nan nan nan nan nan nan nan nan nan nan nan nan nan nan nan nan nan nan nan nan nan nan nan nan nan nan nan nan nan nan nan 198 196 193 190 199 210 222 219 nan nan nan 296 309 320 326 324 336 8 330 323 331 332 316 302 258 240 224 212 198 208 218 193 193 205 202
nan nan nan nan nan nan nan nan nan nan nan nan nan nan nan nan nan nan nan nan nan nan nan nan nan nan nan nan nan nan nan nan nan nan nan nan nan nan nan nan nan nan nan nan nan nan nan nan 218 219 nan nan nan 213 208 209 211 214 205 214 211 nan nan nan nan 307 333 345 351 4 7 351 333 336 332 318 297 268 250 232 210 198 202 204 188 200 204 204
nan nan nan nan nan nan nan nan nan nan nan nan nan nan nan nan nan nan nan nan nan nan nan nan nan nan nan nan nan nan nan nan nan nan nan nan nan nan nan nan nan nan nan nan nan nan nan nan 217 218 230 228 218 224 228 207 205 215 228 nan nan nan nan nan nan 302 333 327 334 337 358 315 327 344 336 321 313 284 252 244 232 201 208 194 183 202 208 203
nan nan nan nan nan nan nan nan nan nan nan nan nan nan nan nan nan nan nan nan nan nan nan nan nan nan nan nan nan nan nan nan nan nan nan nan nan nan nan nan nan nan nan nan nan nan nan nan nan 192 196 204 209 207 209 209 203 206 237 nan nan nan nan 157 304 328 323 290 308 342 358 318 332 343 341 329 330 311 269 247 224 214 208 197 186 207 207 203
nan nan nan nan nan nan nan nan nan nan nan nan nan nan nan nan nan nan nan nan nan nan nan nan nan nan nan nan nan nan nan nan nan nan nan nan nan nan nan nan nan nan nan nan nan nan nan nan nan nan nan 194 205 208 226 218 201 215 nan nan nan 173 174 199 308 328 333 317 332 341 356 352 327 334 338 331 336 330 310 292 238 210 204 200 193 203 206 198
nan nan nan nan nan nan nan nan nan nan nan nan nan nan nan nan nan nan nan nan nan nan nan nan nan nan nan nan nan nan nan nan nan nan nan nan nan nan nan nan nan nan nan nan nan nan nan nan nan nan nan 204 209 213 212 nan 199 194 nan nan nan 181 177 182 317 317 316 308 313 329 338 356 335 318 337 336 341 348 341 331 296 218 205 194 195 200 203 193
nan nan nan nan nan nan nan nan nan nan nan nan nan nan nan nan nan nan nan nan nan nan nan nan nan nan nan nan nan nan nan nan nan nan nan nan nan nan nan nan nan nan nan nan nan nan nan nan nan nan 212 nan 219 nan nan nan nan 211 nan nan nan 164 93 343 327 311 320 319 309 299 328 344 321 321 336 350 355 354 355 348 330 249 212 198 190 195 202 195
nan nan nan nan nan nan nan nan nan nan nan nan nan nan nan nan nan nan nan nan nan nan nan nan nan nan nan nan nan nan nan nan nan nan nan nan nan nan nan nan nan nan nan nan nan nan nan 226 209 206 212 205 205 199 192 nan nan nan nan nan nan 255 17 340 326 310 323 335 302 nan 324 329 342 333 341 350 356 3 350 343 331 288 216 202 190 190 200 194
nan nan nan nan nan nan nan nan nan nan nan nan nan nan nan nan nan nan nan nan nan nan nan nan nan nan nan nan nan nan nan nan nan nan nan nan nan nan nan nan nan nan nan nan nan nan nan nan nan nan nan nan nan nan nan nan nan nan nan nan nan 192 331 357 333 307 305 293 284 295 nan 333 5 316 335 345 340 354 352 352 343 317 225 202 194 189 194 192
nan nan nan nan nan nan nan nan nan nan nan nan nan nan nan nan nan nan nan nan nan nan nan nan nan nan nan nan nan nan nan nan nan nan nan nan nan nan nan nan nan nan nan nan nan nan nan nan nan nan nan nan nan nan 185 198 nan nan nan nan 194 200 265 nan 317 321 nan nan nan 291 311 355 353 350 311 331 338 344 352 351 345 318 231 201 198 192 195 194
nan nan nan nan nan nan nan nan nan nan nan nan nan nan nan nan nan nan nan nan nan nan nan nan nan nan nan nan nan nan nan nan nan nan nan nan nan nan nan nan 214 nan nan nan nan nan nan nan nan nan nan 237 nan nan nan 206 225 nan nan 212 207 195 210 nan nan nan nan 295 302 307 305 359 10 nan nan nan 335 346 348 350 348 326 229 207 204 203 200 197
nan nan nan nan nan nan nan nan nan nan nan nan nan nan nan nan nan nan nan nan nan nan nan nan nan nan nan nan nan nan nan nan nan nan nan nan nan nan nan nan nan 200 192 nan nan nan nan nan nan nan nan nan nan nan nan nan nan nan nan nan 203 199 201 197 nan nan nan nan nan 301 347 286 215 294 nan nan nan nan 345 346 347 324 220 200 205 204 203 199
nan nan nan nan nan nan nan nan nan nan nan nan nan nan nan nan nan nan nan nan nan nan nan nan nan nan nan nan nan nan nan nan nan nan nan nan nan nan nan nan nan 189 nan nan nan nan nan nan nan nan nan nan nan nan nan nan nan nan nan nan nan 188 214 nan nan nan nan nan nan 325 350 nan 303 293 303 322 335 nan 339 336 335 321 233 208 202 199 204 197
nan nan nan nan nan nan nan nan nan nan nan nan nan nan nan nan nan nan nan nan nan nan nan nan nan nan nan nan nan nan nan nan nan nan nan nan nan nan nan nan nan nan 194 nan nan nan nan nan nan nan nan nan nan nan nan nan nan nan nan nan 207 nan nan nan nan nan 173 10 311 nan nan nan nan 316 293 307 325 333 334 333 331 326 269 214 201 197 208 208
nan nan nan nan nan nan nan nan nan nan nan nan nan nan nan nan nan nan nan nan nan nan nan nan nan nan nan nan nan nan nan nan nan nan nan nan nan nan nan nan nan nan nan nan nan nan nan nan nan nan nan nan nan nan nan nan nan nan nan nan nan nan nan nan nan nan nan nan 263 nan nan nan nan 292 303 306 312 323 333 337 332 324 289 224 197 195 206 212
nan nan nan nan nan nan nan nan nan nan nan nan nan nan nan nan nan nan nan nan nan nan nan nan nan nan nan nan nan nan nan nan nan nan nan nan nan nan nan nan nan nan nan nan nan nan nan nan nan nan nan nan nan nan nan nan nan nan nan nan nan nan 249 261 nan nan nan 222 231 nan nan nan nan 256 nan 293 316 324 335 340 333 325 293 232 208 196 207 210
nan nan nan nan nan nan nan nan nan nan nan nan nan nan nan nan nan nan nan nan nan nan nan nan nan nan nan nan nan nan nan nan nan nan nan nan nan nan nan nan nan nan nan nan nan nan nan nan nan nan nan nan nan nan nan nan nan nan nan nan nan nan nan nan nan 205 nan 197 203 235 nan nan nan nan nan nan 301 327 335 344 339 325 293 227 205 200 205 208
nan nan nan nan nan nan nan nan nan nan nan nan nan nan nan nan nan nan nan nan nan nan nan nan nan nan nan nan nan nan nan nan nan nan nan nan nan nan nan nan nan nan nan nan 192 nan nan nan nan nan nan nan nan nan nan nan nan nan nan nan nan nan nan nan nan nan nan 203 213 223 219 nan nan nan nan 251 287 326 341 344 339 328 290 221 201 198 203 204
nan nan nan nan nan nan nan nan nan nan nan nan nan nan nan nan nan nan nan nan nan nan nan nan nan nan nan nan nan nan nan nan nan nan nan nan nan nan nan nan nan nan nan nan nan 211 nan nan nan nan nan nan nan nan nan nan nan nan nan nan nan nan nan nan nan 262 nan 231 216 nan nan nan nan nan nan 265 291 322 335 341 339 326 nan nan nan 189 194 190
nan nan nan nan nan nan nan nan nan nan nan nan nan nan nan nan nan nan nan nan nan nan nan nan nan nan nan nan nan nan nan nan nan nan nan nan nan nan nan nan nan nan nan nan nan nan nan nan nan nan nan nan nan nan nan nan nan nan nan nan nan nan nan nan nan nan 245 nan nan nan nan 273 nan 267 nan 276 301 320 334 340 343 nan nan nan nan 180 181 175
nan nan nan nan nan nan nan nan nan nan nan nan nan nan nan nan nan nan nan nan nan nan nan nan nan nan nan nan nan nan nan nan nan nan nan nan nan nan nan nan nan nan nan nan nan nan nan nan nan nan nan nan nan nan nan nan nan nan nan nan nan nan nan nan nan 209 198 nan nan nan nan nan 278 274 270 292 308 320 335 341 nan nan nan nan nan nan 179 172
nan nan nan nan nan nan nan nan nan nan nan nan nan nan nan nan nan nan nan nan nan nan nan nan nan nan nan nan nan nan nan nan nan nan nan nan nan nan nan nan nan nan nan nan nan 244 nan nan nan nan nan nan nan nan nan nan nan nan nan nan nan nan nan nan nan 211 nan nan nan nan nan nan 285 nan 280 316 313 324 332 340 349 nan nan nan nan 181 177 168
nan nan nan nan nan nan nan nan nan nan nan nan nan nan nan nan nan nan nan nan nan nan nan nan nan nan nan nan nan nan nan nan nan nan nan nan nan nan nan nan nan nan nan nan 207 nan nan 231 nan nan nan nan nan nan nan nan nan nan nan nan nan nan nan nan nan nan nan nan nan nan nan nan nan 299 nan nan 300 312 315 334 351 356 343 307 172 172 174 173
nan nan nan nan nan nan nan nan nan nan nan nan nan nan nan nan nan nan nan nan nan nan nan nan nan nan nan nan nan nan nan nan 191 nan nan nan nan nan nan nan nan nan nan 241 nan nan nan nan 223 nan 183 nan nan nan nan nan nan nan nan nan nan nan nan nan nan nan nan 216 217 nan nan nan nan nan nan nan 309 306 316 322 340 349 346 297 219 193 188 190
nan nan nan nan nan nan nan nan nan nan nan nan nan nan nan nan nan nan nan nan nan nan nan nan nan nan nan nan nan nan nan nan nan nan nan nan nan nan nan nan nan nan nan nan nan nan nan nan nan nan nan nan nan nan nan nan nan nan nan nan nan nan nan nan nan 241 233 nan nan 242 231 265 nan nan nan nan 278 302 306 316 319 329 338 322 258 224 216 215
nan nan nan nan nan nan nan nan nan nan nan nan nan nan nan nan nan nan nan nan nan nan nan nan nan nan nan nan nan nan nan nan nan 219 nan nan nan nan nan nan nan 247 274 nan nan nan nan nan nan nan nan nan nan nan nan nan nan nan nan nan nan nan nan nan nan nan nan nan nan 237 180 196 237 nan nan 258 253 245 279 302 304 304 312 315 287 255 237 230
nan nan nan nan nan nan nan nan nan nan nan nan nan nan nan nan nan nan nan nan nan nan nan nan nan nan nan nan nan nan 210 nan nan nan nan 213 nan nan nan 253 nan nan 254 nan nan nan nan nan nan nan nan nan nan nan nan nan nan nan nan nan nan nan nan nan nan 219 204 186 169 156 170 190 nan nan 244 238 241 260 266 279 290 293 299 300 301 270 249 241
nan nan nan nan nan nan nan nan nan nan nan nan nan nan nan nan nan nan nan nan nan nan nan nan nan nan nan nan nan nan nan nan nan 213 nan nan 221 nan nan nan nan nan nan nan nan nan nan nan nan nan nan nan nan nan nan nan nan nan nan nan nan nan nan nan nan 224 223 190 171 175 186 207 249 nan 203 229 259 280 294 302 306 308 304 291 270 241 229 229
nan nan nan nan nan nan nan nan nan nan nan nan nan nan nan nan nan nan nan nan nan nan nan nan nan nan nan nan nan nan nan nan nan nan nan nan nan nan nan 223 nan nan nan nan nan nan nan nan nan nan nan nan nan nan nan nan nan 231 240 nan nan nan nan nan nan 226 210 193 183 193 nan nan 230 191 186 270 291 315 310 306 304 310 318 306 283 246 217 208
nan nan nan nan nan nan nan nan nan nan nan nan nan nan nan nan nan nan nan nan nan nan nan nan nan nan nan nan nan nan nan nan nan nan nan nan nan nan nan nan nan nan nan nan nan 225 nan nan nan nan nan nan nan nan nan nan nan nan nan nan 237 239 236 238 234 234 229 203 188 214 223 212 177 178 187 284 299 320 319 315 312 316 322 324 306 273 232 209